Flag Weather past 2 weeks in Geesthacht, Schleswig-Holstein, Germany

Now
50 °F

Fog.


Feels Like: 48 °F
Forecast: 51 / 62 °F
Wind: 6 mph from Southeast

Location: Hamburg-Fuhlsbuettel

Current Time: Oct 31, 2014 at 8:08:11 AM

Latest Report: Oct 31, 2014 at 7:20 AM


Visibility: 2 mi

Pressure: 30.18 "Hg

Humidity: 100%

Dew point: 50 °F

Location of GeesthachtLocation

Historic Weather in Geesthacht — Graph

°F

Geesthacht temperature yesterday

Maximum temperature yesterday: 52 °F (at 11:50 AM)
Minimum temperature yesterday: 34 °F (at 4:50 AM)
Average temperature yesterday: 45 °F

Past Weeks' High & Low Weather Summary

 TemperatureHumidityPressure
High72 °F (Oct 19, 1:50 PM)100% (Oct 16, 8:20 PM)30.24 "Hg (Oct 16, 8:20 PM)
Low34 °F (Oct 30, 4:50 AM)63% (Oct 27, 12:20 PM)29.36 "Hg (Oct 21, 6:20 PM)
Average53 °F88%29.98 "Hg
* Reported Oct 16 7:20 AM — Oct 31 6:50 AM, Geesthacht, Weather by CustomWeather, © 2014

Note: Actual official high and low records may vary slightly from our data, if they occured in-between our weather recording intervals... More about our weather records

Advertising

Geesthacht weather history for previous 24 hours

 ConditionsComfort  
Time TempWeatherWind HumidityBarometerVisibility
6:50 AM
Oct 31
50 °FFog.6 mph100%30.18 "Hg2 mi
6:20 AM50 °FFog.8 mph100%30.18 "Hg2 mi
5:50 AM50 °FFog.7 mph100%30.18 "Hg2 mi
5:20 AM50 °FFog.7 mph100%30.18 "Hg2 mi
4:50 AM50 °FFog.8 mph100%30.18 "Hg2 mi
4:20 AM50 °FFog.7 mph100%30.18 "Hg2 mi
3:50 AM50 °FFog.8 mph100%30.18 "Hg3 mi
3:20 AM50 °FLow clouds.8 mph100%30.18 "Hg4 mi
2:50 AM50 °FLow clouds.7 mph100%30.21 "Hg4 mi
2:20 AM50 °FPassing clouds.8 mph100%30.21 "Hg4 mi
1:50 AM50 °FLow clouds.7 mph100%30.21 "Hg4 mi
1:20 AM50 °FLow clouds.7 mph100%30.21 "Hg4 mi
12:50 AM50 °FLow clouds.10 mph100%30.21 "Hg4 mi
12:20 AM50 °FLow clouds.10 mph94%30.21 "Hg4 mi
11:50 PM
Oct 30
50 °FMostly cloudy.8 mph94%30.21 "Hg4 mi
11:20 PM50 °FPassing clouds.9 mph94%30.21 "Hg4 mi
10:50 PM50 °FPassing clouds.10 mph94%30.24 "Hg4 mi
10:20 PM50 °FPartly cloudy.12 mph94%30.24 "Hg4 mi
9:50 PM50 °FPartly cloudy.10 mph94%30.24 "Hg4 mi
9:20 PM50 °FPassing clouds.12 mph94%30.24 "Hg5 mi
8:50 PM50 °FPassing clouds.9 mph94%30.24 "Hg5 mi
8:20 PM50 °FPassing clouds.10 mph94%30.24 "Hg5 mi
7:50 PM50 °FPassing clouds.10 mph94%30.24 "Hg5 mi
7:20 PM50 °FPassing clouds.10 mph94%30.24 "Hg5 mi
6:50 PM50 °FPassing clouds.8 mph94%30.24 "Hg5 mi
6:20 PM50 °FPassing clouds.9 mph94%30.24 "Hg6 mi
5:50 PM50 °FPassing clouds.10 mph94%30.24 "Hg6 mi
5:20 PM50 °FPassing clouds.8 mph94%30.24 "Hg5 mi
4:50 PM50 °FBroken clouds.10 mph94%30.24 "Hg6 mi
4:20 PM52 °FPartly sunny.9 mph88%30.24 "Hg6 mi
3:50 PM52 °FPartly sunny.9 mph88%30.24 "Hg6 mi
3:20 PM52 °FPartly sunny.12 mph88%30.24 "HgN/A
2:50 PM52 °FBroken clouds.10 mph88%30.24 "HgN/A
2:20 PM52 °FPartly sunny.8 mph82%30.24 "HgN/A
1:50 PM52 °FBroken clouds.6 mph82%30.24 "HgN/A
1:20 PM52 °FBroken clouds.6 mph82%30.24 "HgN/A
12:50 PM52 °FPartly sunny.7 mph82%30.24 "HgN/A
12:20 PM52 °FPartly sunny.7 mph82%30.24 "HgN/A
11:50 AM52 °FPartly sunny.8 mph88%30.24 "HgN/A
11:20 AM50 °FPartly sunny.6 mph88%30.24 "HgN/A
10:50 AM48 °FPartly sunny.3 mph94%30.24 "HgN/A
10:20 AM46 °FPartly sunny.1 mph100%30.24 "HgN/A
9:50 AM45 °FPartly sunny.2 mph100%30.24 "HgN/A
9:20 AM43 °FFog.1 mph100%30.24 "HgN/A
8:50 AM39 °FFog.3 mph100%30.24 "HgN/A
8:20 AM36 °FPartly sunny.1 mph100%30.24 "HgN/A
Weather by CustomWeather, © 2014

See weather overviewHow to use our weather pages